Temperature
16 16 16 16 16 16 16 16 15 15 15 15 15 15 15 16 16 16 15 15 15 15 15 15 15 16 16 16 16 16 16 16 15 15 15 15 15 15 15 15 15 15 15
16 16 16 16 16 16 15 15 15 15 15 15 15 15 15 15 15 15 15 15 15 15 15 15 15 15 15 16 16 16 16 15 15 15 15 15 15 15 15 15 15 15 15
16 16 16 16 16 15 15 15 15 15 15 15 15 15 15 15 15 15 15 15 15 15 15 15 15 15 15 15 15 15 15 15 15 14 14 14 14 14 14 15 14 14 14
15 16 16 16 16 15 15 15 15 15 15 15 15 15 15 15 15 15 15 15 15 15 15 15 15 15 15 15 15 15 15 14 14 14 14 14 14 14 14 14 14 14 14
15 15 15 15 15 15 15 15 15 15 15 15 15 15 15 15 15 15 15 15 15 15 15 15 15 15 15 15 15 15 14 14 14 14 14 14 14 14 14 14 14 14 14
14 15 15 15 15 15 15 15 15 14 14 14 14 15 15 15 15 15 15 15 15 15 15 15 15 15 15 15 15 14 14 14 14 14 14 14 14 14 14 14 14 14 14
14 14 14 15 15 14 14 14 14 14 14 14 14 15 15 15 15 15 15 15 15 15 15 15 15 15 15 15 14 14 14 14 14 14 14 13 13 13 13 14 13 13 13
14 14 14 14 14 14 14 14 14 14 14 14 14 14 14 15 14 14 14 14 14 14 14 15 15 14 14 14 14 14 14 13 13 13 13 13 13 13 13 13 13 13 13
13 13 14 13 13 14 14 14 14 14 14 14 14 14 14 14 14 14 14 14 14 14 14 14 14 14 14 14 14 14 13 13 13 13 13 13 13 13 13 13 13 13 13
13 13 13 13 13 13 13 13 14 14 14 14 14 14 14 14 14 14 14 14 14 14 14 14 14 14 14 14 14 13 13 13 13 13 13 13 13 12 13 13 13 13 13
12 12 13 13 13 13 13 13 13 13 13 13 13 13 13 13 13 13 13 14 14 14 14 14 14 14 14 14 13 13 13 12 13 13 12 12 12 12 12 12 12 12 12
12 12 12 12 12 12 12 13 13 13 13 13 13 13 13 13 13 13 13 13 13 13 13 13 13 13 13 13 13 13 12 12 12 12 12 12 12 12 12 12 12 12 12
11 11 12 12 12 12 12 12 12 12 13 13 13 13 12 12 12 12 13 13 13 13 13 13 13 13 13 13 12 12 12 12 12 12 12 12 12 12 12 11 11 11 11
11 11 11 12 12 12 12 12 12 12 12 12 12 12 12 12 12 12 12 13 13 13 13 12 12 12 12 12 12 12 12 11 11 11 11 11 11 11 11 11 11 11 11
11 11 11 11 11 11 11 12 12 12 12 12 12 12 12 12 12 12 12 12 12 12 12 12 12 12 12 11 11 11 11 11 11 11 11 11 11 11 11 11 11 10 10
11 10 11 11 11 11 11 11 11 11 11 12 12 12 11 12 12 12 12 12 12 12 12 12 11 11 11 11 11 11 11 11 10 11 11 11 11 11 11 10 10 10 10
10 10 10 10 10 10 11 11 11 11 11 11 11 11 11 11 11 11 11 11 11 11 11 11 11 11 11 11 11 10 10 10 10 10 10 10 10 10 10 10 10 10 10
10 10 10 10 10 10 10 10 10 11 11 11 11 11 11 11 11 11 11 11 11 11 11 11 11 11 11 10 10 10 10 10 10 10 10 10 10 10 10 10 10 10 10
9 9 9 10 10 10 10 10 10 10 10 10 11 11 11 11 11 11 11 11 11 11 10 10 10 10 10 10 10 10 10 10 10 9 9 9 9 9 9 9 9 9 9
9 9 9 9 9 9 9 10 10 10 10 10 10 10 10 10 10 10 10 11 10 10 10 10 10 10 10 10 9 9 9 9 9 9 9 9 9 9 9 9 9 9 9
8 8 8 9 9 9 9 9 9 10 10 10 10 10 10 10 10 10 10 10 10 10 10 10 10 10 9 9 9 9 9 9 9 8 8 8 8 8 8 8 8 8 8
8 8 8 8 8 9 9 9 9 9 9 9 9 9 9 10 10 10 10 10 10 10 9 9 9 9 9 9 8 8 8 8 8 8 8 8 8 8 8 8 8 8 8
7 7 8 8 8 8 8 8 8 8 8 9 9 9 9 9 9 9 9 9 9 9 9 9 9 9 8 8 8 8 7 7 8 8 8 8 8 8 8 7 7 7 7
7 7 7 7 8 8 8 8 8 8 8 8 8 8 8 8 9 9 9 9 9 9 8 8 8 8 8 8 7 7 7 7 7 7 7 7 7 7 7 7 7 7 7
7 7 7 7 7 7 7 7 8 7 7 8 8 8 8 8 8 8 8 8 8 8 8 8 8 8 7 7 7 7 7 6 6 6 6 7 7 7 6 6 6 6 6
6 6 6 6 7 7 7 7 7 7 7 7 7 7 7 7 7 7 7 7 7 7 7 7 7 7 7 7 7 6 6 6 6 6 6 6 6 6 6 6 6 6 6
Wind_Speed
5 6 8 7 7 7 7 8 8 10 10 9 10 10 11 12 12 12 11 11 12 12 13 13 14 14 15 15 16 16 16 15 15 15 15 16 16 16 16 15 15 14 16
6 7 8 7 7 7 7 7 8 9 9 9 9 10 10 11 11 11 11 10 11 12 12 12 13 14 14 14 14 14 14 13 13 12 13 14 15 16 16 15 15 14 15
8 8 8 7 7 7 7 7 7 8 8 8 9 9 9 10 10 10 10 10 10 11 12 12 12 13 13 13 13 12 12 11 10 10 10 11 13 15 15 15 15 14 15
8 8 7 7 7 7 7 7 7 7 7 7 8 8 8 9 9 9 10 10 10 10 11 11 12 12 12 12 11 11 10 9 8 8 10 12 12 14 15 14 15 15 14
7 8 8 8 7 7 7 7 7 7 7 7 7 8 8 8 9 9 9 9 10 10 10 10 11 11 11 10 10 10 9 8 8 7 10 12 12 14 14 14 14 14 13
7 9 8 7 7 7 7 7 7 6 6 6 7 7 7 8 8 8 8 8 9 9 9 10 10 10 10 9 9 8 7 7 7 8 11 11 11 12 13 13 12 12 12
6 8 8 7 7 7 7 6 6 6 6 6 6 6 7 7 7 7 7 8 8 8 8 9 9 9 9 8 7 7 6 6 7 9 10 11 11 12 12 12 11 11 11
6 7 8 7 7 7 6 6 6 5 5 5 5 5 6 6 6 7 7 7 7 7 7 8 8 8 8 7 6 5 5 6 6 8 10 11 12 11 11 11 11 11 11
6 6 6 7 7 6 6 5 5 5 5 5 5 5 5 6 6 7 7 6 6 6 6 7 7 7 7 6 5 4 4 5 6 7 9 9 10 10 9 9 9 9 9
5 5 4 5 5 5 5 5 5 5 5 5 4 4 5 6 6 7 6 6 6 5 6 6 7 7 6 5 4 2 3 4 7 8 8 8 9 8 8 8 8 8 8
4 4 4 3 4 4 4 4 4 4 4 4 4 4 4 5 6 6 6 6 5 5 6 6 7 7 6 4 3 1 2 3 7 8 8 8 8 8 7 7 7 7 7
3 3 3 2 3 3 3 4 2 3 3 3 3 3 3 4 4 5 6 6 5 5 5 6 6 6 5 3 2 1 2 5 7 8 8 8 7 7 6 6 6 6 6
2 2 2 2 3 2 2 2 2 2 2 2 2 2 2 3 4 5 5 5 4 4 4 4 5 3 3 3 2 1 3 5 6 7 8 8 7 6 6 5 5 5 5
2 2 3 3 3 3 3 2 2 2 2 1 2 2 2 2 2 3 3 3 3 3 3 3 2 2 3 3 2 2 3 4 6 7 7 7 6 5 4 4 4 4 4
3 2 2 2 2 3 3 2 2 2 2 2 3 2 2 2 1 2 2 3 3 3 3 2 2 2 2 2 2 3 3 4 6 7 6 7 5 4 3 3 2 2 2
2 2 2 2 2 2 2 1 2 2 2 2 2 2 2 2 1 2 2 2 2 3 2 2 2 2 2 2 2 3 3 3 5 7 6 5 4 3 3 2 1 1 1
2 2 1 1 2 2 2 2 2 2 3 2 2 3 3 2 2 2 2 2 2 3 2 2 1 2 2 2 1 2 3 3 4 5 5 5 4 2 2 1 1 0 1
2 2 2 1 1 1 1 1 2 2 2 2 2 2 2 3 3 3 2 2 2 2 2 2 1 1 1 2 1 1 1 2 2 3 4 4 4 2 2 1 0 1 1
2 2 2 2 2 2 1 1 2 2 2 2 2 2 2 2 3 3 2 2 3 2 1 1 2 2 1 1 1 1 1 1 1 2 3 3 3 3 2 2 1 1 2
2 2 2 2 2 2 1 1 1 1 1 2 2 2 2 2 3 3 3 3 3 2 1 1 1 2 1 1 1 1 1 1 1 1 1 2 2 2 2 2 1 1 2
2 2 2 2 2 1 1 1 1 1 0 0 2 3 3 3 2 3 3 3 3 3 2 2 1 2 2 1 2 1 0 1 2 2 1 1 1 1 1 1 1 1 2
2 2 2 2 2 1 1 1 1 1 1 1 2 2 3 3 3 3 3 3 3 3 3 2 2 2 1 2 2 1 0 1 1 2 1 2 1 1 1 2 2 2 2
2 2 2 1 1 2 1 1 2 1 1 1 1 1 2 3 3 2 2 3 3 3 3 3 3 3 2 1 2 2 2 1 1 2 2 1 1 1 1 2 2 2 2
2 2 1 2 2 1 2 2 2 2 1 1 1 1 2 3 2 3 2 2 3 3 3 3 3 2 3 2 0 0 1 1 1 1 2 2 2 1 1 1 1 3 3
2 2 2 2 1 1 2 2 3 2 1 1 2 2 2 2 2 2 3 2 2 2 3 3 2 2 2 2 2 1 1 1 1 1 2 2 2 2 2 2 1 2 3
2 2 2 2 2 2 2 2 3 2 2 3 2 2 1 1 1 2 2 2 2 1 1 2 2 3 2 2 2 2 1 1 1 1 2 3 3 3 2 2 1 2 3
Wind_Direction
96 104 112 100 95 92 90 89 86 86 85 88 90 90 87 84 82 83 88 91 89 89 89 88 87 84 83 81 79 77 77 78 77 77 78 80 80 79 79 75 76 77 78
115 111 115 105 103 101 96 93 89 89 86 88 91 90 88 86 85 83 84 91 90 89 90 90 89 88 86 85 83 80 79 79 79 77 78 81 82 80 78 77 78 79 79
108 109 114 109 106 107 104 102 98 94 92 90 95 94 93 90 87 85 84 86 92 92 93 92 91 89 89 87 85 83 81 77 74 73 73 84 84 81 79 79 80 80 80
108 110 111 110 108 109 108 104 103 100 97 95 97 98 97 97 93 89 88 86 92 98 97 96 94 91 89 87 86 84 81 71 68 68 72 77 80 80 79 80 81 80 78
104 106 107 112 112 112 113 110 104 101 98 99 100 103 100 101 98 95 93 90 89 98 103 100 97 94 92 89 86 83 77 65 62 66 75 77 78 81 80 79 80 80 78
101 101 109 113 113 112 114 115 112 106 102 103 103 106 103 103 102 98 98 95 91 97 103 101 99 96 94 92 87 80 70 57 55 70 79 80 81 83 81 80 79 80 79
102 103 112 113 111 109 110 112 112 112 110 109 108 112 112 110 109 105 103 102 97 99 104 106 104 101 97 93 87 76 63 54 65 75 78 80 85 87 84 82 80 80 79
102 105 116 111 109 106 106 103 103 112 114 112 114 118 123 118 118 118 114 111 107 103 109 111 111 110 104 96 85 66 54 63 75 82 82 81 86 88 87 83 81 79 76
91 100 113 116 108 104 104 105 109 114 115 113 115 115 123 121 121 125 122 121 117 113 116 117 117 116 110 103 91 67 43 49 71 81 86 85 89 89 87 83 81 77 75
92 98 107 111 114 115 110 112 110 113 119 122 123 122 128 130 131 132 130 128 126 123 124 126 125 124 123 119 106 70 28 57 81 86 85 86 89 89 86 84 84 80 75
90 96 99 103 109 115 120 117 116 120 124 123 124 130 132 135 136 132 131 130 128 129 132 134 135 127 131 140 137 74 28 74 90 88 88 93 92 88 85 84 85 81 76
85 88 87 85 76 85 104 109 117 133 132 120 115 123 132 137 139 133 134 135 134 137 144 143 141 135 132 138 136 100 72 77 88 90 94 99 96 92 88 85 85 84 78
111 77 77 73 62 63 62 91 87 91 105 102 104 119 135 118 115 113 119 119 122 129 132 139 141 147 135 125 133 119 78 77 90 94 97 99 95 94 92 88 84 83 80
100 84 73 60 57 49 52 55 69 69 79 81 89 104 103 95 100 109 111 118 123 128 116 134 158 160 128 134 149 103 88 95 98 102 102 103 97 93 96 96 90 88 83
92 69 64 64 66 57 50 42 45 47 65 72 85 94 98 96 126 115 114 112 114 112 113 140 146 131 126 140 132 102 93 94 100 104 108 105 105 100 99 97 97 90 82
104 83 58 62 61 73 70 51 46 40 56 75 89 105 109 102 100 122 123 114 114 115 126 129 144 141 147 129 122 106 96 101 105 107 114 111 108 110 116 108 95 83 43
124 118 97 90 66 70 88 72 55 54 57 61 76 113 116 108 111 107 119 124 115 119 124 100 106 107 130 123 128 113 102 95 105 120 123 123 119 123 141 135 112 58 346
122 126 124 117 95 61 64 69 60 68 63 65 79 90 114 118 122 111 118 117 100 99 98 116 122 112 123 132 133 135 113 111 112 120 120 121 124 126 140 166 190 285 304
125 121 125 123 114 91 76 71 55 60 65 68 80 83 96 123 137 123 120 104 108 93 84 114 120 114 121 144 154 147 137 128 120 115 122 127 123 127 147 176 214 257 284
116 119 120 105 98 95 101 115 94 64 56 62 71 75 84 94 123 122 109 109 113 113 107 111 122 114 118 146 162 152 179 173 135 127 128 120 123 128 131 147 176 241 267
114 110 113 116 107 102 125 155 173 193 156 61 82 88 95 88 95 115 116 126 122 138 141 128 96 116 90 84 74 55 289 193 169 165 143 131 145 150 178 176 189 214 257
118 119 116 106 114 113 124 167 173 142 135 134 85 80 91 91 83 98 115 129 132 141 129 126 111 98 85 83 99 112 16 315 291 212 187 196 202 179 218 223 220 211 219
123 135 133 131 130 139 143 129 107 85 97 111 95 96 68 71 75 77 97 114 120 143 147 139 135 118 128 63 79 115 132 225 273 264 226 199 211 227 237 236 237 229 224
111 102 112 119 126 142 151 143 137 142 143 151 132 127 94 78 64 68 69 100 123 133 150 152 140 127 136 158 212 2 133 159 180 270 273 252 234 238 242 281 271 250 241
95 115 129 119 125 127 119 126 126 123 134 111 101 100 99 95 83 72 74 71 100 120 148 153 148 143 150 165 166 173 306 330 260 196 259 283 288 261 256 247 247 250 242
87 112 130 121 107 110 112 119 128 128 115 105 97 95 95 91 83 76 94 91 83 87 116 155 164 173 175 177 171 155 162 184 223 212 241 264 269 266 272 248 245 248 241
Height
1506 1506 1507 1508 1509 1510 1511 1512 1514 1514 1516 1517 1518 1519 1520 1520 1521 1522 1523 1524 1525 1525 1526 1527 1527 1528 1528 1528 1529 1529 1530 1530 1531 1531 1532 1532 1533 1533 1533 1534 1534 1535 1535
1505 1506 1507 1508 1509 1511 1512 1513 1514 1515 1516 1518 1519 1519 1520 1521 1522 1523 1524 1525 1526 1526 1527 1528 1528 1529 1529 1530 1530 1531 1531 1532 1533 1533 1534 1534 1534 1535 1535 1535 1536 1536 1536
1504 1506 1507 1508 1509 1511 1512 1513 1514 1516 1517 1518 1519 1520 1521 1522 1523 1524 1524 1525 1526 1527 1528 1529 1529 1530 1530 1531 1531 1532 1533 1533 1534 1535 1535 1535 1536 1536 1536 1537 1537 1537 1538
1505 1506 1507 1508 1510 1511 1512 1513 1515 1516 1517 1518 1520 1521 1521 1522 1523 1524 1525 1526 1527 1528 1528 1529 1530 1531 1531 1532 1532 1533 1534 1535 1535 1536 1536 1537 1537 1537 1538 1538 1538 1538 1539
1505 1506 1507 1508 1509 1511 1512 1513 1515 1516 1517 1518 1520 1521 1522 1523 1524 1525 1526 1526 1527 1528 1529 1530 1530 1531 1532 1533 1533 1534 1535 1536 1536 1537 1537 1538 1538 1538 1538 1539 1539 1540 1540
1505 1505 1507 1508 1509 1510 1511 1513 1514 1515 1517 1518 1519 1521 1522 1523 1523 1525 1526 1526 1527 1528 1529 1530 1531 1532 1533 1533 1534 1535 1536 1536 1537 1537 1538 1538 1539 1539 1539 1540 1540 1540 1541
1505 1505 1507 1508 1509 1510 1511 1512 1513 1515 1516 1517 1519 1520 1521 1522 1523 1524 1525 1526 1528 1529 1529 1530 1531 1532 1533 1534 1535 1536 1536 1537 1537 1538 1538 1539 1539 1540 1540 1540 1540 1541 1541
1504 1505 1506 1507 1508 1509 1510 1511 1513 1514 1516 1517 1518 1519 1521 1522 1523 1524 1525 1526 1527 1528 1529 1530 1531 1532 1533 1534 1535 1536 1537 1537 1538 1538 1538 1539 1539 1540 1540 1540 1541 1541 1541
1504 1504 1505 1506 1507 1508 1509 1511 1512 1513 1515 1516 1517 1518 1520 1521 1522 1523 1525 1526 1527 1528 1529 1530 1531 1532 1533 1534 1535 1536 1537 1538 1538 1538 1539 1539 1539 1540 1540 1540 1540 1541 1541
1503 1504 1504 1505 1506 1507 1508 1510 1511 1512 1513 1515 1516 1517 1519 1520 1521 1522 1524 1525 1526 1527 1528 1529 1530 1531 1533 1534 1535 1536 1537 1537 1538 1538 1538 1539 1539 1540 1540 1540 1540 1540 1540
1502 1503 1503 1504 1505 1506 1507 1508 1509 1511 1512 1513 1515 1516 1517 1519 1520 1521 1522 1524 1525 1526 1527 1528 1530 1531 1532 1533 1534 1535 1536 1537 1537 1538 1538 1538 1539 1539 1539 1539 1539 1540 1540
1501 1502 1502 1503 1504 1505 1506 1507 1508 1509 1510 1512 1513 1514 1516 1517 1518 1519 1521 1523 1524 1525 1526 1527 1529 1530 1531 1532 1533 1535 1535 1536 1536 1537 1537 1538 1538 1538 1538 1539 1539 1539 1539
1500 1500 1501 1502 1502 1503 1504 1505 1506 1508 1509 1510 1511 1513 1514 1515 1517 1518 1519 1521 1522 1523 1525 1526 1528 1529 1530 1531 1532 1534 1535 1535 1536 1536 1536 1537 1537 1537 1537 1537 1538 1538 1538
1499 1499 1499 1500 1501 1501 1502 1504 1505 1506 1507 1508 1509 1511 1512 1513 1515 1516 1517 1519 1520 1522 1523 1525 1526 1527 1529 1530 1531 1533 1533 1534 1535 1535 1535 1536 1536 1536 1536 1536 1536 1537 1537
1497 1497 1498 1499 1499 1500 1500 1501 1502 1504 1505 1506 1507 1509 1510 1511 1513 1514 1515 1517 1519 1520 1521 1523 1525 1526 1528 1529 1530 1531 1532 1533 1534 1534 1534 1535 1535 1535 1535 1535 1535 1535 1535
1495 1495 1496 1497 1497 1498 1499 1499 1501 1502 1503 1504 1506 1507 1508 1509 1511 1512 1514 1515 1517 1518 1519 1521 1523 1524 1526 1527 1529 1529 1531 1532 1532 1532 1533 1533 1533 1533 1534 1534 1534 1534 1534
1493 1493 1494 1495 1495 1496 1497 1498 1499 1500 1501 1502 1503 1504 1506 1507 1509 1510 1511 1513 1515 1516 1518 1520 1521 1523 1524 1525 1527 1528 1529 1530 1531 1531 1531 1531 1532 1532 1532 1532 1532 1532 1532
1491 1491 1492 1492 1493 1494 1495 1496 1497 1498 1499 1500 1501 1502 1503 1505 1506 1508 1509 1511 1513 1514 1516 1517 1519 1520 1522 1523 1525 1526 1527 1528 1529 1529 1529 1529 1529 1530 1530 1530 1530 1530 1530
1488 1489 1489 1490 1491 1492 1493 1494 1495 1495 1496 1497 1499 1500 1501 1503 1504 1505 1507 1509 1511 1513 1514 1515 1517 1518 1519 1521 1522 1523 1524 1525 1527 1527 1527 1527 1527 1527 1527 1528 1527 1527 1527
1486 1486 1487 1487 1488 1489 1490 1491 1492 1493 1494 1495 1496 1497 1499 1500 1501 1503 1504 1506 1508 1510 1511 1512 1514 1516 1517 1518 1520 1521 1522 1523 1524 1525 1525 1525 1526 1525 1525 1525 1525 1525 1524
1483 1483 1484 1484 1485 1486 1487 1488 1489 1490 1491 1492 1494 1495 1496 1498 1499 1500 1502 1503 1505 1507 1509 1510 1512 1513 1515 1516 1517 1518 1520 1521 1522 1522 1523 1523 1523 1523 1523 1523 1522 1522 1521
1481 1481 1481 1482 1483 1484 1485 1486 1487 1488 1489 1490 1491 1493 1494 1495 1496 1498 1500 1501 1502 1505 1506 1508 1510 1511 1512 1514 1515 1516 1517 1519 1519 1520 1520 1520 1521 1520 1520 1520 1520 1519 1518
1478 1478 1479 1479 1480 1481 1483 1484 1485 1486 1487 1488 1489 1489 1491 1493 1494 1496 1497 1498 1500 1502 1503 1506 1507 1508 1510 1512 1513 1515 1515 1515 1516 1517 1517 1518 1518 1518 1518 1518 1517 1516 1516
1476 1476 1477 1477 1478 1479 1480 1481 1482 1483 1484 1485 1487 1488 1489 1490 1492 1493 1495 1496 1498 1500 1501 1503 1505 1506 1508 1509 1511 1512 1513 1514 1514 1513 1514 1514 1514 1514 1514 1514 1514 1513 1513
1474 1474 1475 1475 1476 1477 1478 1479 1480 1481 1482 1484 1485 1486 1487 1488 1490 1491 1492 1494 1495 1497 1498 1500 1502 1503 1505 1507 1508 1509 1510 1511 1511 1511 1510 1511 1511 1511 1511 1511 1510 1510 1509
1472 1472 1473 1473 1474 1475 1476 1477 1478 1479 1480 1482 1483 1483 1485 1486 1487 1489 1490 1491 1492 1494 1496 1497 1499 1500 1502 1504 1505 1505 1507 1508 1508 1508 1508 1507 1507 1507 1508 1507 1507 1507 1506